Location: Kosice
(0.0000°N, 21.2500°E)
Time: 16:34:42
(UTC+01:00)

Daily predictions for brighter satellites

Satellite Brightness Start Highest point End
(mag) Time Altitude Azimuth Time Altitude Azimuth Time Altitude Azimuth
ARIANE 5 DEB (SYLDA) 4.2 17:52:02 10° WSW 17:56:14 69° S 18:14:13 10° E
USA 267 4.1 18:00:16 10° NNE 18:06:31 50° NW 18:12:49 10° SW
Meteor 2-10 Rocket 3.9 18:04:31 10° NNW 18:09:37 71° W 18:14:36 10° S
Meteor 2-19 Rocket 4.5 18:04:05 10° S 18:10:13 77° E 18:16:21 10° N
Cosmos 2278 Rocket 3.6 18:09:29 10° SW 18:14:46 42° WNW 18:20:04 10° N
Ariane H10 1.2 18:12:15 10° W 18:16:53 86° S 18:19:19 10° E
Cosmos 158 Rocket 4.5 18:18:05 10° N 18:23:04 39° ENE 18:28:01 10° SE
Cosmos 1939 Rocket 4.3 18:20:44 10° S 18:24:40 44° WSW 18:28:36 10° NNW
Cosmos 2150 Rocket 4.0 18:19:34 10° S 18:24:41 66° ESE 18:29:45 10° NNE
DMSP B5D2-2 4.4 18:19:56 10° NNE 18:24:56 46° ESE 18:29:56 10° S
Aureole 3 3.5 18:25:36 10° NNW 18:28:36 59° W 18:32:07 10° S
BREEZE-M DEB (TANK) 4.1 18:31:35 10° SE 18:32:00 10° SE 18:32:24 10° SE
Feng Yun 1-1 Rocket 4.5 18:28:03 10° S 18:33:25 73° WSW 18:38:47 10° NNW
OAO 3 Rocket 4.4 18:28:56 10° WSW 18:33:29 37° NW 18:38:04 10° NNE
Cosmos 1892 3.1 18:31:48 10° SSE 18:35:19 38° E 18:38:48 10° NNE
CZ-2D R/B 4.3 18:31:41 10° S 18:35:27 51° W 18:39:12 10° NNW
GPS 2-04 Rocket1 3.4 18:33:55 10° SSW 18:36:55 30° SE 18:38:43 18° E
IRS-1C Rocket 4.1 18:33:39 10° SSE 18:38:55 89° WSW 18:44:10 10° NNW
H-2A R/B 2.0 18:34:32 10° SSE 18:39:19 52° ENE 18:44:07 10° N
Cosmos 405 3.8 18:38:19 10° NNE 18:41:21 28° E 18:44:24 10° SE
Cosmos 1809 Rocket 4.5 18:37:21 10° S 18:43:19 59° E 18:49:17 10° NNE
SWARM A 4.5 18:40:16 10° S 18:43:34 70° W 18:46:51 10° N
CZ-4 R/B 1.5 18:41:09 10° S 18:45:21 86° WSW 18:49:29 10° NNW
Cosmos 2058 3.9 18:41:51 10° SSE 18:45:23 26° E 18:46:39 23° ENE
Iridium 4 Rocket 3.4 18:41:52 10° N 18:46:42 75° W 18:51:09 10° S
Cosmos 1655 Rocket 3.9 18:40:56 10° S 18:47:12 73° E 18:53:24 10° N
deb Ariane 3.7 18:44:38 10° W 18:47:24 86° N 18:52:41 19° E
Lacrosse 5 3.9 18:44:48 10° NNE 18:45:00 11° NNE 18:45:00 11° NNE
Cosmos 923 Rocket 3.9 18:43:48 10° N 18:49:01 71° ENE 18:54:14 10° SSE
ARGOS 3.4 18:44:40 10° SSE 18:49:45 44° ENE 18:54:48 10° N
Cosmos 2297 3.6 18:45:03 10° S 18:50:40 77° ESE 18:56:17 10° NNE
Ariane H10+ 2.9 18:39:00 10° W 18:52:02 51° N 18:54:50 25° ENE
Ariane 42L Rocket 3.3 18:51:39 10° SSW 18:52:36 13° S 18:53:01 13° SSE
YAOGAN 1 2.6 18:50:06 10° S 18:54:26 83° W 18:58:44 10° NNW
Cosmos 1680 Rocket 3.5 18:49:47 10° N 18:54:51 56° ENE 18:59:56 10° SSE
Aureole 3 Rocket 3.4 18:51:36 10° N 18:56:00 85° E 19:02:18 10° S
Ariane H10 4.3 18:22:54 10° W 18:56:56 61° NNW 19:00:07 26° ENE
Okean-O 2.8 18:52:33 10° S 18:56:59 75° WSW 19:01:23 10° NNW
Meteor 2-15 4.4 18:52:51 10° N 18:58:53 60° E 19:04:54 10° SSE
Cosmos 1553 Rocket 4.1 18:55:08 10° NNE 19:01:11 50° E 19:07:08 10° SSE
Cosmos 1125 Rocket 3.8 18:56:11 10° SSW 19:01:20 68° WNW 19:06:29 10° N
SJ-11-01 4.4 18:59:58 10° S 19:04:42 78° WSW 19:09:23 10° NNW
ARIANE 5 R/B 0.9 18:59:56 10° W 19:04:48 80° S 19:05:04 67° ESE
FUSE 4.1 19:01:46 10° WNW 19:07:04 71° SSW 19:10:46 20° SE
NATO 3D Rocket 3.4 19:03:31 10° WSW 19:08:09 64° NNW 19:09:56 37° NE
Cosmos-2242 2.9 19:05:31 10° N 19:09:49 76° E 19:14:11 10° S
Cosmos 2084 Rocket 4.2 19:06:10 10° S 19:09:28 32° SE 19:09:28 32° SE
CSL-04 Debris 4.0 19:06:16 10° SSE 19:11:42 78° ENE 19:17:04 10° N
Cosmos 1408 2.8 19:11:34 10° S 19:15:10 66° W 19:16:34 33° NNW
Meteor 2-21 4.5 19:09:20 10° S 19:15:22 79° W 19:21:25 10° N
Palapa 6 Rocket 3.9 19:12:43 10° WNW 19:18:15 53° SSW 19:20:45 26° SE
SL-08 RB Rocket 3.5 19:14:54 10° SSE 19:19:29 72° ENE 19:21:47 29° N
GEOS 3 Rocket 3.6 19:16:56 29° NNE 19:19:38 76° WNW 19:24:43 10° SSW
CCE 1 Rocket 3.5 19:19:09 10° WNW 19:24:58 80° NNE 19:25:24 71° E
S3M 4.0 19:23:00 37° NNE 19:25:08 54° E 19:31:11 10° SSE
ARIANE DEB (SYLDA) 3.0 19:25:31 10° WSW 19:29:41 37° S 19:30:09 35° SSE
Meteor 2-15 Rocket 4.4 19:23:48 10° N 19:29:57 88° W 19:36:05 10° S
Cosmos 2112 Rocket 4.4 19:28:27 10° NNW 19:33:32 60° WSW 19:38:37 10° S
Meteor 1-27 4.0 19:30:25 26° N 19:33:37 81° E 19:39:11 10° S
SL-8 R/B 3.7 19:29:04 10° SSW 19:33:32 69° SSE 19:33:32 69° SSE
Cosmos 1825 2.8 19:30:18 10° SSW 19:33:19 52° SW 19:33:19 52° SW
Cosmos 1076 Rocket 4.1 19:30:05 10° S 19:33:18 48° SSE 19:33:18 48° SSE
DELTA 2 R/B (1) 3.8 19:31:40 10° NW 19:37:10 68° SW 19:39:22 36° SSE
Ariane 44P Rocket 3.6 19:33:43 10° W 19:37:19 66° N 19:39:09 50° ENE
CZ-3A R/B 3.2 19:33:07 10° WSW 19:39:41 71° NNW 19:43:03 45° NE
Lacrosse 5 rocket 2.4 19:38:47 10° SW 19:43:11 44° WNW 19:43:23 44° NW
NOSS 3-3 (A) 3.6 19:44:10 10° SSW 19:49:32 80° W 19:49:32 80° W
Cosmos 1943 Rocket 3.1 19:44:36 10° SW 19:49:45 42° WNW 19:51:42 31° NNW
NOSS 3-3 (C) 3.6 19:44:15 10° SSW 19:49:35 80° WSW 19:49:35 80° WSW
Cosmos 2369 Rocket 2.2 19:45:10 10° SSW 19:50:31 79° SSW 19:50:31 79° SSW
BREEZE-M DEB (TANK) 4.3 19:25:17 10° SW 19:53:45 79° NW 19:55:51 54° NNE
BLOCK DM-SL R/B 3.7 19:45:16 10° W 20:06:55 83° WSW 20:06:55 83° WSW
